Location: Diamond (historical)
(40.9014°N, 81.3248°W)
Time: 13:44:02
(UTC+00:00)

Daily predictions for brighter satellites

Satellite Brightness Start Highest point End
(mag) Time Altitude Azimuth Time Altitude Azimuth Time Altitude Azimuth
Cosmos 1428 Rocket 4.5 12:00:52 10° SSW 12:06:57 65° W 12:13:02 10° N
Cosmos 1092 Rocket 4.1 12:01:25 10° SSW 12:07:31 56° W 12:13:44 10° N
USA 229 DEB 4.0 22:12:38 10° NNW 22:20:05 82° NE 22:27:58 10° SE
USA 229 4.0 22:12:44 10° NNW 22:20:11 81° NE 22:28:03 10° SE
NOAA 6 4.3 22:19:04 10° SE 22:23:54 44° ENE 22:28:46 10° N
Cosmos 1666 4.2 22:22:50 10° NNE 22:25:15 16° ENE 22:27:38 10° ESE
CZ-4B R/B 4.4 22:21:28 10° ESE 22:25:15 20° ENE 22:29:00 10° NNE
SL-24 R/B - RUBIN 2 3.9 22:27:17 10° NNW 22:31:33 41° NE 22:35:38 10° ESE
Cosmos 540 Rocket 3.5 22:27:35 10° SSW 22:32:41 86° WNW 22:37:49 10° NNE
Cosmos 2360 4.2 22:28:34 10° NNW 22:34:20 82° ENE 22:40:03 10° SSE
USA 234 3.7 22:29:06 10° E 22:35:13 44° NNE 22:41:19 10° NW
Cosmos 858 Rocket 4.5 22:32:00 10° NNW 22:37:18 69° ENE 22:42:32 10° SSE
PSLV R/B 4.4 22:35:46 10° SE 22:39:01 30° ENE 22:42:20 10° N
Meteor PRIRODA 4.2 22:38:23 10° S 22:41:59 63° W 22:45:34 10° NNW
Cosmos 921 Rocket 4.2 22:42:22 10° SSE 22:45:32 21° E 22:48:25 11° NE
Cosmos 1933 4.0 22:45:08 10° SSW 22:49:06 57° W 22:53:05 10° N
Cosmos 1812 2.9 22:45:54 10° SSE 22:49:35 48° E 22:53:18 10° NNE
CZ-4B R/B 3.8 22:48:57 10° S 22:52:53 51° W 22:56:39 10° NNW
CZ-2C R/B 3.0 22:49:52 10° SW 22:53:21 24° SSE 22:56:45 10° ESE
Cosmos 1814 Rocket 4.0 22:50:06 10° S 22:55:18 70° ESE 23:00:28 10° NNE
Meteor 1-26 Rocket 4.4 22:49:54 10° S 22:55:52 88° W 23:01:57 10° N
COSMO-SKYMED 1 3.4 22:52:11 10° NE 22:56:01 30° E 22:59:50 10° SSE
Cosmos 1570 Rocket 4.0 22:51:52 10° S 22:57:01 62° ESE 23:02:11 10° NNE
COSMOS 2455 3.3 22:53:01 10° SW 22:58:58 64° WNW 23:04:59 10° NNE
Cosmos 1633 Rocket 3.4 22:55:39 10° N 22:59:48 41° ENE 23:03:57 10° SSE
Cosmos 1151 Rocket 3.0 22:57:45 10° S 23:02:00 62° E 23:06:19 10° NNE
X-37B 1.9 22:59:44 10° SSW 23:02:09 24° SSE 23:03:24 18° ESE
Meteor 2-16 Rocket 4.5 22:57:12 10° N 23:03:13 57° ENE 23:09:14 10° SSE
Cosmos 1092 Rocket 4.4 22:57:22 10° NNW 23:03:41 69° W 23:09:56 10° S
Cosmos 1697 Rocket 3.6 22:58:30 10° NNW 23:03:56 52° WSW 23:09:20 10° S
Cosmos 2322 Rocket 3.5 23:00:32 10° N 23:04:30 19° NE 23:05:57 17° ENE
AQUARIUS 4.2 23:00:48 10° SSE 23:05:17 84° WSW 23:09:49 10° NNW
Cosmos 1980 Rocket 2.2 23:03:46 10° NNW 23:09:27 88° ENE 23:15:04 10° SSE
SMAP 3.7 23:08:08 10° S 23:12:43 60° W 23:17:20 10° NNW
CORIOLIS 4.5 23:10:00 10° S 23:15:22 71° WSW 23:20:48 10° NNW
Landsat 5 4.1 23:14:49 22° NE 23:16:35 32° E 23:20:08 10° SSE
Cosmos 2369 4.2 23:11:12 10° NNW 23:16:53 64° WSW 23:22:29 10° S
Cosmos 1818 3.9 23:12:31 10° NNW 23:17:45 44° NE 23:22:56 10° ESE
ISS -3.9 23:14:58 10° NW 23:18:23 82° NE 23:20:29 21° ESE
CZ-4C R/B 3.0 23:13:02 10° NNW 23:20:27 74° NE 23:29:01 10° SE
Cosmos 2082 Rocket 3.1 23:18:27 10° SW 23:23:56 49° WNW 23:29:26 10° NNE
SL-16 R/B 2.8 23:19:04 10° N 23:24:11 33° ENE 23:27:08 21° ESE
Meteor 1-5 Rocket 4.3 23:18:52 10° N 23:24:52 81° E 23:30:43 10° SSE
Okean O Rocket 1.8 23:21:04 10° SE 23:25:20 47° ENE 23:29:37 10° N
Cosmos 2279 Rocket 4.0 23:19:40 10° S 23:25:53 85° W 23:32:08 10° N
Cosmos 1328 Rocket 3.5 23:22:06 10° S 23:26:32 83° E 23:30:59 10° N
USA 306 4.5 23:24:15 10° NNW 23:27:21 19° NNE 23:27:37 19° NNE
Cosmos 1666 Rocket 3.7 23:23:18 10° N 23:27:45 78° W 23:32:06 10° S
ARGOS 3.1 23:25:54 10° SSE 23:31:11 59° ENE 23:36:30 10° N
Cosmos 1470 Rocket 3.7 23:26:50 10° N 23:31:13 52° E 23:35:35 10° SSE
Cosmos 44 Rocket 3.3 23:27:03 10° NNW 23:31:50 52° NE 23:34:46 22° ESE
Cosmos 2266 Rocket 4.1 23:27:10 10° N 23:33:25 52° ENE 23:39:38 10° SSE
Cosmos 2208 Rocket 4.2 23:28:37 10° SSW 23:34:00 78° WNW 23:39:21 11° NNE
Aureole 3 Rocket 3.8 23:32:47 10° SSE 23:36:36 35° E 23:37:00 35° ENE
CZ-2D R/B 4.0 23:33:17 10° S 23:37:01 53° W 23:40:46 10° NNW
Cosmos 1867 4.0 23:34:24 10° S 23:39:29 41° ESE 23:40:49 35° E
Cosmos 2333 Rocket 4.4 23:37:10 10° NNE 23:37:10 10° NNE 23:37:10 10° NNE
Cosmos 2278 3.9 23:34:22 10° NNW 23:40:04 74° WSW 23:45:43 10° SSE
Cosmos 2150 Rocket 4.1 23:35:49 10° N 23:40:53 52° ENE 23:46:00 10° SE
Meteor 2-15 4.3 23:35:14 10° S 23:41:20 80° E 23:47:27 10° N
H-2A R/B 2.4 23:36:15 10° S 23:41:23 67° WSW 23:46:25 10° NNW
ATLAS CENTAUR R/B 4.1 23:35:55 10° W 23:42:50 25° NW 23:45:45 14° N
SKYMED 2 3.6 23:40:10 12° N 23:44:11 79° WNW 23:48:31 10° SSW
USA 267 4.2 23:41:27 17° NNE 23:45:56 39° NNW 23:51:51 10° W
USA 32 4.1 23:43:50 10° SSE 23:48:53 53° E 23:51:15 30° NNE
Cosmos 1125 Rocket 3.4 23:47:09 10° NNW 23:52:21 61° ENE 23:56:49 14° SSE
